| time (UTC) | temp F | wind direction | speed MPH | gust MPH | rain 1hr in | rain 24hr in | rain mn in | humidity % | barometer mb |
| 20260507102936 | 59 | 33 | 10.0 | 16.0 | 0.00 | 0.00 | 0.00 | 60 | 1015.3 |
| 20260507101939 | 58 | 11 | 8.0 | 14.0 | 0.00 | 0.00 | 0.00 | 61 | 1015.4 |
| 20260507101002 | 58 | 22 | 6.0 | 11.0 | 0.00 | 0.00 | 0.00 | 61 | 1015.6 |
| 20260507095946 | 58 | 360 | 8.0 | 13.0 | 0.00 | 0.00 | 0.00 | 62 | 1015.6 |
| 20260507094949 | 58 | 19 | 3.0 | 9.0 | 0.00 | 0.00 | 0.00 | 62 | 1015.6 |
| 20260507093951 | 58 | 360 | 7.0 | 11.0 | 0.00 | 0.00 | 0.00 | 61 | 1015.5 |
| 20260507092950 | 59 | 19 | 3.0 | 12.0 | 0.00 | 0.00 | 0.00 | 60 | 1015.5 |
| 20260507091953 | 59 | 45 | 8.0 | 14.0 | 0.00 | 0.00 | 0.00 | 59 | 1015.5 |
| 20260507090936 | 58 | 10 | 6.0 | 12.0 | 0.00 | 0.00 | 0.00 | 58 | 1015.4 |
| 20260507085959 | 58 | 13 | 3.0 | 10.0 | 0.00 | 0.00 | 0.00 | 58 | 1015.3 |
| 20260507084940 | 58 | 43 | 0.0 | 0.0 | 0.00 | 0.00 | 0.00 | 59 | 1015.2 |
| 20260507083947 | 59 | 42 | 0.0 | 0.0 | 0.00 | 0.00 | 0.00 | 57 | 1015.0 |
| 20260507082935 | 59 | 344 | 0.0 | 0.0 | 0.00 | 0.00 | 0.00 | 56 | 1014.9 |
| 20260507081939 | 60 | 74 | 0.0 | 0.0 | 0.00 | 0.00 | 0.00 | 56 | 1014.9 |
| 20260507081002 | 60 | 74 | 0.0 | 4.0 | 0.00 | 0.00 | 0.00 | 54 | 1014.9 |
| 20260507075946 | 61 | 27 | 0.0 | 6.0 | 0.00 | 0.00 | 0.00 | 53 | 1014.8 |
| 20260507073949 | 62 | 23 | 6.0 | 14.0 | 0.00 | 0.00 | 0.00 | 53 | 1014.9 |
| 20260507072932 | 62 | 360 | 1.0 | 21.0 | 0.00 | 0.00 | 0.00 | 53 | 1014.8 |
| 20260507071938 | 62 | 19 | 4.0 | 14.0 | 0.00 | 0.00 | 0.00 | 53 | 1014.7 |
| 20260507070936 | 62 | 42 | 6.0 | 13.0 | 0.00 | 0.00 | 0.00 | 52 | 1014.6 |
| 20260507065952 | 62 | 47 | 9.0 | 15.0 | 0.00 | 0.00 | 0.00 | 52 | 1014.6 |
| 20260507064953 | 63 | 5 | 8.0 | 16.0 | 0.00 | 0.00 | 0.00 | 51 | 1014.6 |
| 20260507064015 | 63 | 30 | 9.0 | 17.0 | 0.00 | 0.00 | 0.00 | 51 | 1014.6 |
| 20260507062952 | 63 | 11 | 6.0 | 16.0 | 0.00 | 0.00 | 0.00 | 51 | 1014.5 |
| 20260507061953 | 63 | 24 | 10.0 | 18.0 | 0.00 | 0.00 | 0.00 | 50 | 1014.5 |
| 20260507060938 | 63 | 40 | 7.0 | 16.0 | 0.00 | 0.00 | 0.00 | 50 | 1014.5 |
| 20260507055941 | 63 | 30 | 9.0 | 14.0 | 0.00 | 0.00 | 0.00 | 50 | 1014.5 |
| 20260507054944 | 64 | 44 | 7.0 | 13.0 | 0.00 | 0.00 | 0.00 | 50 | 1014.5 |
| 20260507053946 | 64 | 32 | 8.0 | 17.0 | 0.00 | 0.00 | 0.00 | 49 | 1014.6 |
| 20260507053010 | 65 | 53 | 10.0 | 19.0 | 0.00 | 0.00 | 0.00 | 48 | 1014.5 |
| 20260507051956 | 65 | 22 | 8.0 | 12.0 | 0.00 | 0.00 | 0.00 | 48 | 1014.5 |
| 20260507050938 | 66 | 45 | 9.0 | 16.0 | 0.00 | 0.00 | 0.00 | 48 | 1014.5 |
| 20260507045939 | 66 | 28 | 8.0 | 16.0 | 0.00 | 0.00 | 0.00 | 47 | 1014.3 |
| 20260507044945 | 67 | 67 | 10.0 | 18.0 | 0.00 | 0.00 | 0.00 | 46 | 1014.4 |
| 20260507043935 | 67 | 40 | 9.0 | 19.0 | 0.00 | 0.00 | 0.00 | 46 | 1014.3 |
| 20260507042938 | 68 | 58 | 13.0 | 20.0 | 0.00 | 0.00 | 0.00 | 45 | 1014.4 |
| 20260507041941 | 69 | 37 | 10.0 | 20.0 | 0.00 | 0.00 | 0.00 | 44 | 1014.2 |
| 20260507040943 | 69 | 38 | 13.0 | 20.0 | 0.00 | 0.00 | 0.00 | 44 | 1014.1 |
| 20260507035933 | 69 | 40 | 11.0 | 18.0 | 0.00 | 0.00 | 0.00 | 44 | 1013.9 |
| 20260507035005 | 69 | 17 | 10.0 | 19.0 | 0.00 | 0.00 | 0.00 | 43 | 1013.9 |
| 20260507033942 | 69 | 40 | 9.0 | 14.0 | 0.00 | 0.00 | 0.00 | 44 | 1013.8 |
| 20260507032943 | 70 | 30 | 13.0 | 21.0 | 0.00 | 0.00 | 0.00 | 44 | 1013.5 |
| 20260507031944 | 70 | 61 | 10.0 | 16.0 | 0.00 | 0.00 | 0.00 | 44 | 1013.3 |
| 20260507031020 | 70 | 51 | 11.0 | 16.0 | 0.00 | 0.00 | 0.00 | 43 | 1013.2 |
| 20260507025934 | 71 | 79 | 10.0 | 21.0 | 0.00 | 0.00 | 0.00 | 43 | 1013.2 |
| 20260507024940 | 71 | 23 | 11.0 | 18.0 | 0.00 | 0.00 | 0.00 | 42 | 1012.6 |
| 20260507023944 | 72 | 36 | 10.0 | 20.0 | 0.00 | 0.00 | 0.00 | 43 | 1012.5 |
| 20260507022934 | 72 | 42 | 12.0 | 22.0 | 0.00 | 0.00 | 0.00 | 45 | 1012.4 |
| 20260507021937 | 72 | 40 | 12.0 | 20.0 | 0.00 | 0.00 | 0.00 | 45 | 1012.5 |
| 20260507021000 | 73 | 44 | 13.0 | 24.0 | 0.00 | 0.00 | 0.00 | 44 | 1012.3 |
| 20260507015945 | 73 | 45 | 9.0 | 17.0 | 0.00 | 0.00 | 0.00 | 46 | 1012.3 |
| 20260507014948 | 73 | 49 | 9.0 | 15.0 | 0.00 | 0.00 | 0.00 | 46 | 1012.3 |
| 20260507013958 | 73 | 46 | 10.0 | 16.0 | 0.00 | 0.00 | 0.00 | 48 | 1012.2 |
| 20260507012940 | 74 | 55 | 7.0 | 17.0 | 0.00 | 0.00 | 0.00 | 47 | 1012.2 |
| 20260507011943 | 74 | 54 | 5.0 | 11.0 | 0.00 | 0.00 | 0.00 | 47 | 1012.2 |
| 20260507010949 | 74 | 56 | 8.0 | 12.0 | 0.00 | 0.00 | 0.00 | 47 | 1012.2 |
| 20260507005934 | 74 | 58 | 9.0 | 12.0 | 0.00 | 0.00 | 0.00 | 47 | 1012.2 |
| 20260507004955 | 75 | 57 | 10.0 | 13.0 | 0.00 | 0.00 | 0.00 | 47 | 1012.2 |
| 20260507003935 | 75 | 60 | 7.0 | 12.0 | 0.00 | 0.00 | 0.00 | 47 | 1012.2 |
| 20260507002935 | 75 | 59 | 9.0 | 15.0 | 0.00 | 0.00 | 0.00 | 45 | 1012.2 |
| 20260507001951 | 75 | 59 | 10.0 | 17.0 | 0.00 | 0.00 | 0.00 | 44 | 1012.2 |
| 20260507000934 | 76 | 59 | 14.0 | 22.0 | 0.00 | 0.00 | 0.00 | 41 | 1012.3 |
| 20260506235953 | 76 | 52 | 11.0 | 23.0 | 0.00 | 0.00 | 0.00 | 41 | 1012.2 |
| 20260506234945 | 77 | 43 | 13.0 | 19.0 | 0.00 | 0.00 | 0.00 | 39 | 1012.1 |
| 20260506234006 | 77 | 31 | 12.0 | 17.0 | 0.00 | 0.00 | 0.00 | 41 | 1012.2 |
| 20260506232932 | 78 | 25 | 8.0 | 15.0 | 0.00 | 0.00 | 0.00 | 42 | 1012.1 |
| 20260506231935 | 77 | 22 | 9.0 | 18.0 | 0.00 | 0.00 | 0.00 | 42 | 1012.1 |
| 20260506230940 | 77 | 11 | 11.0 | 17.0 | 0.00 | 0.00 | 0.00 | 41 | 1012.1 |
| 20260506225942 | 78 | 5 | 9.0 | 14.0 | 0.00 | 0.00 | 0.00 | 45 | 1012.2 |
| 20260506225004 | 78 | 360 | 11.0 | 16.0 | 0.00 | 0.00 | 0.00 | 43 | 1012.3 |
| 20260506223949 | 78 | 355 | 8.0 | 13.0 | 0.00 | 0.00 | 0.00 | 46 | 1012.3 |
| 20260506222931 | 78 | 355 | 6.0 | 10.0 | 0.00 | 0.00 | 0.00 | 42 | 1012.3 |
| 20260506221937 | 78 | 355 | 2.0 | 14.0 | 0.00 | 0.00 | 0.00 | 47 | 1012.5 |
| 20260506221000 | 79 | 355 | 6.0 | 15.0 | 0.00 | 0.00 | 0.00 | 42 | 1012.6 |
| 20260506215945 | 79 | 355 | 3.0 | 17.0 | 0.00 | 0.00 | 0.00 | 44 | 1012.6 |
| 20260506215010 | 80 | 355 | 3.0 | 13.0 | 0.00 | 0.00 | 0.00 | 42 | 1012.7 |
| 20260506213931 | 80 | 355 | 6.0 | 11.0 | 0.00 | 0.00 | 0.00 | 42 | 1012.7 |
| 20260506212937 | 80 | 355 | 5.0 | 13.0 | 0.00 | 0.00 | 0.00 | 41 | 1012.8 |
| 20260506211938 | 80 | 350 | 2.0 | 15.0 | 0.00 | 0.00 | 0.00 | 38 | 1012.7 |
| 20260506210937 | 80 | 350 | 4.0 | 15.0 | 0.00 | 0.00 | 0.00 | 38 | 1012.8 |
| 20260506205937 | 79 | 349 | 10.0 | 15.0 | 0.00 | 0.00 | 0.00 | 40 | 1013.0 |
| 20260506204938 | 78 | 349 | 7.0 | 15.0 | 0.00 | 0.00 | 0.00 | 44 | 1013.1 |
| 20260506203943 | 78 | 346 | 11.0 | 17.0 | 0.00 | 0.00 | 0.00 | 45 | 1013.1 |
| 20260506202933 | 77 | 344 | 4.0 | 17.0 | 0.00 | 0.00 | 0.00 | 47 | 1013.1 |
| 20260506201939 | 77 | 342 | 12.0 | 17.0 | 0.00 | 0.00 | 0.00 | 46 | 1013.2 |
| 20260506201003 | 77 | 340 | 8.0 | 14.0 | 0.00 | 0.00 | 0.00 | 48 | 1013.0 |
| 20260506195945 | 76 | 338 | 8.0 | 15.0 | 0.00 | 0.00 | 0.00 | 46 | 1013.2 |
| 20260506194936 | 76 | 337 | 10.0 | 19.0 | 0.00 | 0.00 | 0.00 | 47 | 1013.2 |
| 20260506193938 | 75 | 336 | 10.0 | 17.0 | 0.00 | 0.00 | 0.00 | 48 | 1013.3 |
| 20260506193004 | 75 | 334 | 9.0 | 19.0 | 0.00 | 0.00 | 0.00 | 48 | 1013.4 |
| 20260506191948 | 75 | 333 | 9.0 | 14.0 | 0.00 | 0.00 | 0.00 | 50 | 1013.6 |
| 20260506191013 | 74 | 331 | 9.0 | 16.0 | 0.00 | 0.00 | 0.00 | 49 | 1013.8 |
| 20260506185938 | 73 | 329 | 10.0 | 18.0 | 0.00 | 0.00 | 0.00 | 52 | 1014.0 |
| 20260506184944 | 73 | 329 | 10.0 | 19.0 | 0.00 | 0.00 | 0.00 | 52 | 1014.1 |
| 20260506182931 | 72 | 322 | 13.0 | 21.0 | 0.00 | 0.00 | 0.00 | 51 | 1014.2 |
| 20260506181954 | 72 | 322 | 10.0 | 19.0 | 0.00 | 0.00 | 0.00 | 54 | 1014.2 |
| 20260506180936 | 72 | 322 | 12.0 | 16.0 | 0.00 | 0.00 | 0.00 | 52 | 1014.2 |
| 20260506175936 | 72 | 319 | 10.0 | 19.0 | 0.00 | 0.00 | 0.00 | 52 | 1014.3 |
| 20260506174936 | 72 | 318 | 11.0 | 18.0 | 0.00 | 0.00 | 0.00 | 50 | 1014.4 |
| 20260506173938 | 72 | 315 | 7.0 | 18.0 | 0.00 | 0.00 | 0.00 | 51 | 1014.3 |
| 20260506172939 | 71 | 314 | 12.0 | 18.0 | 0.00 | 0.00 | 0.00 | 50 | 1014.4 |
| 20260506171942 | 71 | 307 | 14.0 | 21.0 | 0.00 | 0.00 | 0.00 | 48 | 1014.6 |
| 20260506170944 | 70 | 309 | 14.0 | 18.0 | 0.00 | 0.00 | 0.00 | 49 | 1014.5 |
| 20260506164942 | 69 | 315 | 10.0 | 17.0 | 0.00 | 0.00 | 0.00 | 53 | 1014.4 |
| 20260506163948 | 68 | 318 | 8.0 | 12.0 | 0.00 | 0.00 | 0.00 | 60 | 1014.5 |
| 20260506162950 | 67 | 321 | 9.0 | 13.0 | 0.00 | 0.00 | 0.00 | 63 | 1014.6 |
| 20260506161932 | 67 | 319 | 5.0 | 14.0 | 0.00 | 0.00 | 0.00 | 64 | 1014.6 |
| 20260506160935 | 66 | 318 | 9.0 | 12.0 | 0.00 | 0.00 | 0.00 | 63 | 1014.6 |
| 20260506155941 | 65 | 318 | 8.0 | 11.0 | 0.00 | 0.00 | 0.00 | 64 | 1014.6 |
| 20260506154945 | 65 | 318 | 8.0 | 13.0 | 0.00 | 0.00 | 0.00 | 64 | 1014.6 |
| 20260506153947 | 64 | 316 | 9.0 | 13.0 | 0.00 | 0.00 | 0.00 | 62 | 1014.6 |
| 20260506153009 | 64 | 316 | 8.0 | 13.0 | 0.00 | 0.00 | 0.00 | 63 | 1014.7 |
| 20260506151934 | 63 | 312 | 8.0 | 13.0 | 0.00 | 0.00 | 0.00 | 62 | 1014.8 |
| 20260506150956 | 63 | 303 | 7.0 | 12.0 | 0.00 | 0.00 | 0.00 | 63 | 1014.8 |
| 20260506145952 | 62 | 292 | 8.0 | 13.0 | 0.00 | 0.00 | 0.00 | 65 | 1014.7 |
| 20260506145013 | 61 | 190 | 0.0 | 0.0 | 0.00 | 0.00 | 0.00 | 66 | 1014.7 |
| 20260506143950 | 60 | 190 | 0.0 | 0.0 | 0.00 | 0.00 | 0.00 | 65 | 1014.6 |
| 20260506142947 | 59 | 190 | 0.0 | 0.0 | 0.00 | 0.00 | 0.00 | 65 | 1014.5 |
| 20260506141952 | 59 | 190 | 0.0 | 0.0 | 0.00 | 0.00 | 0.00 | 65 | 1014.4 |
| 20260506140935 | 59 | 190 | 0.0 | 0.0 | 0.00 | 0.00 | 0.00 | 64 | 1014.4 |
| 20260506135940 | 58 | 190 | 0.0 | 0.0 | 0.00 | 0.00 | 0.00 | 64 | 1014.3 |
| 20260506134944 | 58 | 190 | 0.0 | 0.0 | 0.00 | 0.00 | 0.00 | 64 | 1014.2 |
| 20260506134010 | 58 | 190 | 0.0 | 1.0 | 0.00 | 0.00 | 0.00 | 65 | 1014.1 |
| 20260506132951 | 58 | 190 | 0.0 | 0.0 | 0.00 | 0.00 | 0.00 | 63 | 1013.9 |
| 20260506131934 | 58 | 190 | 0.0 | 0.0 | 0.00 | 0.00 | 0.00 | 63 | 1013.7 |
| 20260506130936 | 58 | 190 | 0.0 | 0.0 | 0.00 | 0.00 | 0.00 | 65 | 1013.5 |
| 20260506125942 | 58 | 190 | 0.0 | 0.0 | 0.00 | 0.00 | 0.00 | 63 | 1013.4 |
| 20260506124928 | 58 | 190 | 0.0 | 3.0 | 0.00 | 0.00 | 0.00 | 61 | 1013.3 |
| 20260506123934 | 58 | 190 | 2.0 | 11.0 | 0.00 | 0.00 | 0.00 | 61 | 1013.0 |
| 20260506122938 | 58 | 184 | 1.0 | 6.0 | 0.00 | 0.00 | 0.00 | 61 | 1012.9 |
| 20260506122003 | 58 | 184 | 2.0 | 7.0 | 0.00 | 0.00 | 0.00 | 60 | 1012.8 |
| 20260506120943 | 58 | 184 | 3.0 | 7.0 | 0.00 | 0.00 | 0.00 | 60 | 1012.8 |
| 20260506115948 | 58 | 184 | 3.0 | 7.0 | 0.00 | 0.00 | 0.00 | 60 | 1012.7 |
| 20260506114946 | 58 | 184 | 2.0 | 7.0 | 0.00 | 0.00 | 0.00 | 59 | 1012.7 |
| 20260506114008 | 58 | 184 | 0.0 | 0.0 | 0.00 | 0.00 | 0.00 | 61 | 1012.8 |
| 20260506112947 | 58 | 184 | 0.0 | 5.0 | 0.00 | 0.00 | 0.00 | 59 | 1012.8 |
| 20260506111949 | 58 | 184 | 2.0 | 11.0 | 0.00 | 0.00 | 0.00 | 59 | 1012.8 |
| 20260506110930 | 58 | 182 | 2.0 | 8.0 | 0.00 | 0.00 | 0.00 | 59 | 1012.8 |
| 20260506105933 | 58 | 180 | 0.0 | 3.0 | 0.00 | 0.00 | 0.00 | 61 | 1012.7 |
| 20260506104940 | 58 | 180 | 0.0 | 4.0 | 0.00 | 0.00 | 0.00 | 59 | 1012.7 |
| 20260506104002 | 59 | 181 | 0.0 | 4.0 | 0.00 | 0.00 | 0.00 | 59 | 1012.6 |